Regional Weather Roundup
Issued by NWS

Home | Current Version | Previous Version | Text Only | Print | Product List | Glossary Off
Versions: 1 2 3 4 5 6 7 8 9 10 11 12 13 14 15 16 17 18 19 20 21 22 23 24 25 26 27 28 29 30 31 32 33 34 35 36 37 38 39 40 41 42 43 44 45 46 47 48 49 50

000
ASUS43 KLOT 060703
RWRIL

ILLINOIS REGIONAL WEATHER ROUNDUP
NATIONAL WEATHER SERVICE CHICAGO/ROMEOVILLE IL
200 AM CDT FRI MAY 06 2016

NOTE: "FAIR" INDICATES FEW OR NO CLOUDS BELOW 12,000 FEET WITH NO
SIGNIFICANT WEATHER AND/OR OBSTRUCTIONS TO VISIBILITY.

* THESE STATIONS ARE NOT UNDER NWS QUALITY CONTROL. THEY ALSO MAY NOT
  REPORT WEATHER SUCH AS PRECIPITATION OR FOG.

ILZ001-002-007-009-015-016-024-060800-
NORTHWEST ILLINOIS

CITY           SKY/WX    TMP DP  RH WIND       PRES   REMARKS
MOLINE         CLEAR     45  41  86 CALM      29.99S
STERLING*      CLEAR     48  41  76 CALM      30.00S
$$

ILZ003-004-008-010-011-017-018-060800-
NORTH CENTRAL ILLINOIS

CITY           SKY/WX    TMP DP  RH WIND       PRES   REMARKS
ROCKFORD       PTCLDY    46  41  82 CALM      30.00S
FREEPORT*      CLEAR     50  39  65 SW5       30.00S
ROCHELLE*      CLEAR     42  39  89 CALM      29.99F
DE KALB*       CLEAR     46  40  79 S5        29.99F
$$

ILZ005-006-012>014-019>023-060800-
NORTHEAST ILLINOIS

CITY           SKY/WX    TMP DP  RH WIND       PRES   REMARKS
CHICAGO-OHARE  CLEAR     46  39  76 SW3       29.97F
CHICAGO-MIDWAY CLEAR     49  39  68 SW3       29.98F
AURORA         CLEAR     44  40  85 CALM      29.99F
LANSING*       CLEAR     40  38  95 CALM      29.99S
WAUKEGAN       CLEAR     42  37  82 SW3       29.96F
DUPAGE AIRPORT CLEAR     44  39  82 CALM      29.98F
WHEELING       CLEAR     41  36  82 CALM      29.98F
NORTHERLY ISL    N/A     49  37  63 SW1         N/A
NORTHERLY ISL    N/A     49  37  63 SW1         N/A
$$

LMZ740>746-060800-
SOUTHERN LAKE MICHIGAN

STATION/POSITION SKY/WX   TEMP    WIND        PRES    VSBY  WAVE
                          AIR SEA DIR/SP/G                  HT/PER
                          (F)     (DEG/KT/KT) (MB)    (MI)  (FT/S)
SOUTHERN BUOY              41 40  240/  6/  8 1015.2          1/ 5
WILMETTE HARBOR            45 44  270/  4/  4   N/A           2/ 5
HARRISON CRIB              50     200/  3/  3   N/A
BURNHAM HARBOR             48     230/  2/  2   N/A
CALUMET HARBOR             47     230/  3/  3 1014.9S
BURNS HARBOR               45     200/  2/  4 1015.9F
MICHIGAN CITY              43     150/  2/  2   N/A
ST. JOSEPH                 45 47                N/A           2/ 5
$$

ILZ025>027-034>036-040-047-049-050-058-095>099-060800-
WEST-CENTRAL ILLINOIS

CITY           SKY/WX    TMP DP  RH WIND       PRES   REMARKS
QUINCY         CLEAR     48  41  76 SW6       30.02F
MACOMB*        CLEAR     47  40  75 SW6       30.03F
PITTSFIELD*    CLEAR     46  44  91 CALM      30.04F
$$

ILZ028>032-037-038-041>044-048-051>054-059>061-060800-
CENTRAL ILLINOIS

CITY           SKY/WX    TMP DP  RH WIND       PRES   REMARKS
BLOOMINGTON    CLEAR     49  42  76 W5        30.02S
DECATUR        CLEAR     46  40  79 E3        30.01S
PEORIA         CLEAR     46  40  79 CALM      30.02R
LINCOLN*       CLEAR     46  44  91 CALM      30.02S
SPRINGFIELD    CLEAR     46  43  89 CALM      30.02S
TAYLORVILLE    NOT AVBL
$$

ILZ033-039-045-046-055>057-062-063-060800-
EAST-CENTRAL ILLINOIS

CITY           SKY/WX    TMP DP  RH WIND       PRES   REMARKS
CHAMPAIGN      CLEAR     48  42  80 CALM      30.00F
MATTOON        CLEAR     49  42  77 W3        30.00S
$$

ILZ079-100>102-060800-
SOUTHWEST ILLINOIS

CITY           SKY/WX    TMP DP  RH WIND       PRES   REMARKS
ALTON          CLEAR     46  42  85 W3        30.04R
BELLEVILLE     CLEAR     47  47  99 CALM      30.02S
CAHOKIA*       CLEAR     48  45  89 CALM      30.04R
SPARTA*        CLEAR     49  45  83 W5        30.04S
$$

ILZ064>066-069>071-074>076-080>082-084>086-088>090-092>094-060800-
SOUTH-CENTRAL ILLINOIS

CITY           SKY/WX    TMP DP  RH WIND       PRES   REMARKS
CARBONDALE     PTCLDY    45  43  93 CALM      30.02F
EFFINGHAM*     CLEAR     47  46  99 CALM      30.03S
MT. VERNON     CLEAR     45  39  81 CALM      30.02F
SALEM*         CLEAR     51  46  83 CALM      30.02F
$$

ILZ067-068-072-073-078-083-087-091-060800-
SOUTHEAST ILLINOIS

CITY           SKY/WX    TMP DP  RH WIND       PRES   REMARKS
LAWRENCEVILLE  CLEAR     48  45  89 W6        30.00S
FLORA*         CLEAR     52  46  78 NW5       30.01F
HARRISBURG*    CLEAR     49  47  92 CALM      30.02S
ROBINSON*      CLEAR     43  42  95 W5        30.01S
$$

ABBREVIATIONS USED IN REMARKS
   TC - TEMPERATURE IN CELSIUS
  WCI - WIND CHILL INDEX
   HX - HEAT INDEX
  VSB - VISIBILITY
$$




USA.gov is the U.S. government's official web portal to all federal, state and local government web resources and services.